Flag Weather past 2 weeks in Ålesund, Norway

Now
41 °F

Sunny.


Feels Like: 33 °F
Forecast: 46 / 51 °F
Wind: 14 mph from East

Location: Alesund / Vigra

Current Time: Oct 31, 2014 at 9:37:09 AM

Latest Report: Oct 31, 2014 at 8:50 AM


Visibility: 10 mi

Pressure: 30.07 "Hg

Humidity: 66%

Dew point: 30 °F

Location of ÅlesundLocation

Historic Weather in Ålesund — Graph

°F

Ålesund temperature yesterday

Maximum temperature yesterday: 45 °F (at 12:50 AM)
Minimum temperature yesterday: 39 °F (at 8:50 PM)
Average temperature yesterday: 43 °F

Past Weeks' High & Low Weather Summary

 TemperatureHumidityPressure
High61 °F (Oct 19, 12:50 PM)100% (Oct 20, 9:50 AM)30.21 "Hg (Oct 20, 9:50 AM)
Low36 °F (Oct 31, 7:20 AM)47% (Oct 17, 1:20 PM)29.09 "Hg (Oct 26, 9:20 PM)
Average49 °F76%29.59 "Hg
* Reported Oct 16 9:20 AM — Oct 31 8:20 AM, Ålesund, Weather by CustomWeather, © 2014

Note: Actual official high and low records may vary slightly from our data, if they occured in-between our weather recording intervals... More about our weather records

Advertising

Ålesund weather history for previous 24 hours

 ConditionsComfort  
Time TempWeatherWind HumidityBarometerVisibility
8:20 AM
Oct 31
41 °FSunny.14 mph70%30.09 "Hg10 mi
7:50 AM37 °FClear.9 mph75%30.09 "Hg10 mi
7:20 AM36 °FPassing clouds.6 mph81%30.09 "HgN/A
6:50 AM41 °FClear.7 mph70%30.12 "Hg10 mi
6:20 AM41 °FClear.8 mph70%30.12 "Hg10 mi
5:50 AM41 °FClear.9 mph76%30.12 "Hg10 mi
5:20 AM39 °FChilly.6 mph81%30.15 "HgN/A
4:50 AM39 °FChilly.9 mph81%30.15 "HgN/A
4:20 AM39 °FChilly.9 mph81%30.15 "HgN/A
3:50 AM41 °FQuite cool.12 mph76%30.15 "HgN/A
3:20 AM39 °FChilly.8 mph75%30.18 "HgN/A
2:50 AM39 °FChilly.9 mph75%30.18 "HgN/A
2:20 AM41 °FQuite cool.9 mph81%30.18 "HgN/A
1:50 AM41 °FQuite cool.10 mph70%30.18 "HgN/A
12:50 AM41 °FPassing clouds.9 mph76%30.18 "HgN/A
12:20 AM41 °FPassing clouds.10 mph76%30.18 "HgN/A
11:50 PM
Oct 30
41 °FPassing clouds.9 mph76%30.18 "HgN/A
11:20 PM41 °FPassing clouds.9 mph81%30.18 "HgN/A
10:50 PM41 °FPassing clouds.8 mph76%30.18 "HgN/A
10:20 PM39 °FPassing clouds.8 mph81%30.18 "HgN/A
9:50 PM39 °FPassing clouds.8 mph81%30.18 "HgN/A
9:20 PM39 °FPassing clouds.7 mph81%30.21 "HgN/A
8:50 PM39 °FPassing clouds.9 mph81%30.18 "HgN/A
8:20 PM43 °FScattered showers. Partly cloudy.7 mph76%30.18 "HgN/A
7:50 PM43 °FScattered showers. Partly cloudy.6 mph76%30.18 "HgN/A
7:20 PM45 °FScattered showers. Passing clouds.6 mph71%30.18 "HgN/A
6:50 PM45 °FScattered showers. Passing clouds.5 mph71%30.18 "HgN/A
6:20 PM45 °FScattered showers. Passing clouds.6 mph71%30.18 "HgN/A
5:50 PM45 °FScattered showers. Passing clouds.6 mph71%30.18 "HgN/A
5:20 PM45 °FPassing clouds.8 mph76%30.18 "HgN/A
4:50 PM45 °FPassing clouds.9 mph71%30.18 "HgN/A
4:20 PM45 °FPartly sunny.7 mph76%30.18 "HgN/A
3:50 PM45 °FPartly sunny.8 mph71%30.18 "HgN/A
3:20 PM45 °FPartly sunny.7 mph76%30.18 "HgN/A
2:50 PM43 °FDrizzle. Partly sunny.12 mph81%30.18 "HgN/A
2:20 PM45 °FScattered showers. Broken clouds.8 mph76%30.18 "HgN/A
1:50 PM45 °FScattered showers. Broken clouds.10 mph76%30.18 "HgN/A
1:20 PM45 °FScattered showers. Broken clouds.8 mph76%30.18 "HgN/A
12:50 PM43 °FScattered showers. Broken clouds.10 mph81%30.15 "HgN/A
12:20 PM45 °FScattered showers. Broken clouds.10 mph71%30.15 "HgN/A
11:50 AM45 °FScattered showers. Broken clouds.10 mph71%30.15 "HgN/A
11:20 AM45 °FBroken clouds.12 mph71%30.15 "HgN/A
10:50 AM45 °FBroken clouds.10 mph71%30.15 "HgN/A
10:20 AM45 °FScattered clouds.15 mph71%30.15 "HgN/A
9:50 AM43 °FScattered showers. Passing clouds.10 mph71%30.12 "HgN/A
9:20 AM43 °FScattered showers. Passing clouds.10 mph71%30.12 "HgN/A
Weather by CustomWeather, © 2014

See weather overviewHow to use our weather pages